FW7194 Weather Reports


Display with metric or nautical units.
time (UTC)temp
F
wind
direction
speed
MPH
gust
MPH
rain 1hr
in
rain 24hr
in
rain mn
in
humidity
%
barometer
mb
20260504225816 70 205 11.0 16.0 0.00 0.00 0.00 53 1015.4
20260504225312 70 206 12.0 16.0 0.00 0.00 0.00 52 1015.4
20260504224810 70 184 7.0 11.0 0.00 0.00 0.00 52 1015.2
20260504224306 71 215 9.0 16.0 0.00 0.00 0.00 52 1015.2
20260504223803 71 204 6.0 14.0 0.00 0.00 0.00 51 1015.3
20260504223258 71 211 9.0 11.0 0.00 0.00 0.00 51 1015.2
20260504222755 71 255 7.0 11.0 0.00 0.00 0.00 52 1015.5
20260504222252 71 187 8.0 16.0 0.00 0.00 0.00 52 1015.5
20260504221750 71 197 5.0 9.0 0.00 0.00 0.00 52 1015.4
20260504221247 71 132 6.0 8.0 0.00 0.00 0.00 52 1015.6
20260504220743 71 177 5.0 13.0 0.00 0.00 0.00 52 1015.5
20260504220240 71 178 4.0 26.0 0.00 0.00 0.00 53 1015.5
20260504215738 71 187 7.0 15.0 0.00 0.00 0.00 53 1015.4
20260504215234 71 210 9.0 11.0 0.00 0.00 0.00 53 1015.3
20260504214730 71 208 5.0 11.0 0.00 0.00 0.00 53 1015.2
20260504214227 71 208 6.0 10.0 0.00 0.00 0.00 52 1015.3
20260504213724 71 193 6.0 11.0 0.00 0.00 0.00 52 1015.4
20260504213220 71 145 7.0 11.0 0.00 0.00 0.00 52 1015.3
20260504212717 72 185 6.0 13.0 0.00 0.00 0.00 52 1015.3
20260504212214 72 208 13.0 16.0 0.00 0.00 0.00 52 1015.3
20260504211711 72 175 7.0 16.0 0.00 0.00 0.00 51 1015.2
20260504211207 72 174 8.0 9.0 0.00 0.00 0.00 52 1015.3
20260504210705 72 181 8.0 15.0 0.00 0.00 0.00 50 1015.3
20260504210202 72 173 11.0 15.0 0.00 0.00 0.00 50 1015.2
20260504205659 72 194 9.0 11.0 0.00 0.00 0.00 53 1015.1
20260504205155 72 204 8.0 13.0 0.00 0.00 0.00 51 1015.2
20260504204654 73 172 12.0 16.0 0.00 0.00 0.00 50 1015.2
20260504204153 73 134 4.0 13.0 0.00 0.00 0.00 52 1015.3
20260504203651 73 187 5.0 14.0 0.00 0.00 0.00 51 1015.5
20260504203149 73 191 4.0 13.0 0.00 0.00 0.00 52 1015.4
20260504202648 73 154 7.0 10.0 0.00 0.00 0.00 51 1015.5
20260504202146 73 213 3.0 13.0 0.00 0.00 0.00 50 1015.6
20260504201643 73 237 9.0 15.0 0.00 0.00 0.00 50 1015.7
20260504201141 73 232 8.0 13.0 0.00 0.00 0.00 50 1015.5
20260504200638 73 243 9.0 13.0 0.00 0.00 0.00 49 1015.5
20260504200134 73 180 8.0 16.0 0.00 0.00 0.00 49 1015.6
20260504195630 73 209 5.0 9.0 0.00 0.00 0.00 51 1015.6
20260504195126 73 204 5.0 13.0 0.00 0.00 0.00 50 1015.8
20260504194623 73 218 4.0 9.0 0.00 0.00 0.00 51 1015.9
20260504194119 73 173 6.0 13.0 0.00 0.00 0.00 51 1016.0
20260504193616 74 189 10.0 13.0 0.00 0.00 0.00 52 1015.9
20260504193114 74 173 10.0 13.0 0.00 0.00 0.00 52 1015.9
20260504192612 74 227 12.0 16.0 0.00 0.00 0.00 53 1015.9
20260504192110 74 204 8.0 16.0 0.00 0.00 0.00 52 1016.1
20260504191608 74 197 4.0 9.0 0.00 0.00 0.00 50 1015.9
20260504191104 74 206 7.0 9.0 0.00 0.00 0.00 53 1016.2
20260504190600 74 191 7.0 14.0 0.00 0.00 0.00 51 1016.0
20260504190056 74 169 10.0 13.0 0.00 0.00 0.00 51 1016.0
20260504185553 74 192 7.0 13.0 0.00 0.00 0.00 49 1016.0
20260504185050 74 207 7.0 11.0 0.00 0.00 0.00 50 1016.0
20260504184545 74 214 10.0 16.0 0.00 0.00 0.00 48 1016.3
20260504184041 74 216 7.0 16.0 0.00 0.00 0.00 49 1016.3
20260504183538 74 143 7.0 15.0 0.00 0.00 0.00 49 1016.3
20260504183036 74 201 8.0 16.0 0.00 0.00 0.00 49 1016.3
20260504182533 74 204 6.0 10.0 0.00 0.00 0.00 49 1016.3
20260504182030 74 195 4.0 13.0 0.00 0.00 0.00 49 1016.5
20260504181527 74 201 12.0 16.0 0.00 0.00 0.00 49 1016.3
20260504181026 75 232 7.0 15.0 0.00 0.00 0.00 49 1016.4
20260504180524 75 201 8.0 13.0 0.00 0.00 0.00 50 1016.3
20260504180023 75 205 7.0 9.0 0.00 0.00 0.00 52 1016.1
20260504175519 75 191 11.0 14.0 0.00 0.00 0.00 51 1016.2
20260504175017 75 206 6.0 11.0 0.00 0.00 0.00 51 1016.2
20260504174514 75 165 9.0 11.0 0.00 0.00 0.00 51 1016.3
20260504174011 75 205 11.0 16.0 0.00 0.00 0.00 52 1016.3
20260504173508 75 197 9.0 11.0 0.00 0.00 0.00 52 1016.3
20260504173005 75 182 11.0 17.0 0.00 0.00 0.00 51 1016.1
20260504172501 75 199 5.0 8.0 0.00 0.00 0.00 52 1016.2
20260504171957 75 210 5.0 10.0 0.00 0.00 0.00 51 1016.2
20260504171455 75 221 8.0 16.0 0.00 0.00 0.00 51 1016.4
20260504170951 76 193 7.0 15.0 0.00 0.00 0.00 50 1016.5
20260504170447 76 239 5.0 14.0 0.00 0.00 0.00 51 1016.5
20260504160408 76 187 1.0 3.0 0.00 0.00 0.00 45 1016.8
20260504150831 75 191 2.0 3.0 0.00 0.00 0.00 56 1017.0
20260504150328 75 181 2.0 7.0 0.00 0.00 0.00 56 1017.1
20260504141258 72 165 1.0 7.0 0.00 0.00 0.00 64 1016.9
20260504140755 72 158 0.0 2.0 0.00 0.00 0.00 64 1017.1
20260504140250 72 181 1.0 5.0 0.00 0.00 0.00 66 1017.2
20260504130719 65 176 2.0 3.0 0.00 0.00 0.00 91 1017.1
20260504130215 64 126 0.0 1.0 0.00 0.00 0.00 94 1017.2
20260504120139 53 132 0.0 0.0 0.00 0.00 0.00 97 1016.9
20260504110606 50 208 0.0 0.0 0.00 0.00 0.00 96 1016.4
20260504100528 50 208 0.0 0.0 0.00 0.00 0.00 95 1016.3
20260504081921 51 204 0.0 0.0 0.00 0.00 0.00 94 1016.5
20260504081418 51 204 0.0 0.0 0.00 0.00 0.00 94 1016.8
20260504080914 51 205 0.0 0.0 0.00 0.00 0.00 94 1016.6
20260504080411 51 205 0.0 0.0 0.00 0.00 0.00 94 1016.8
20260504070338 52 201 0.0 0.0 0.00 0.00 0.00 93 1016.7
20260504050715 53 202 0.0 0.0 0.00 0.00 0.00 91 1017.3
20260504050206 53 203 0.0 0.0 0.00 0.00 0.00 91 1017.3
20260504045703 53 203 0.0 0.0 0.00 0.00 0.00 91 1017.3
20260504045203 53 204 0.0 0.0 0.00 0.00 0.00 90 1017.2
20260504044702 53 203 0.0 0.0 0.00 0.00 0.00 90 1017.1
20260504044159 53 203 0.0 0.0 0.00 0.00 0.00 90 1017.1
20260504043655 53 203 0.0 0.0 0.00 0.00 0.00 90 1017.3
20260504043152 53 208 0.0 0.0 0.00 0.00 0.00 90 1017.4
20260504042650 53 209 0.0 0.0 0.00 0.00 0.00 90 1017.3
20260504042146 53 210 0.0 0.0 0.00 0.00 0.00 90 1017.4
20260504041642 53 207 0.0 0.0 0.00 0.00 0.00 90 1017.3
20260504041138 54 207 0.0 0.0 0.00 0.00 0.00 89 1017.3
20260504040636 54 207 0.0 0.0 0.00 0.00 0.00 89 1017.4
20260504040133 54 207 0.0 0.0 0.00 0.00 0.00 89 1017.3
20260504035629 54 208 0.0 0.0 0.00 0.00 0.00 89 1017.3
20260504035126 54 208 0.0 0.0 0.00 0.00 0.00 89 1017.2
20260504034624 54 205 0.0 0.0 0.00 0.00 0.00 88 1017.3
20260504034120 54 207 0.0 0.0 0.00 0.00 0.00 88 1017.3
20260504033618 54 207 0.0 0.0 0.00 0.00 0.00 88 1017.4
20260504033116 54 208 0.0 0.0 0.00 0.00 0.00 88 1017.4
20260504032612 54 208 0.0 0.0 0.00 0.00 0.00 88 1017.3
20260504032109 54 208 0.0 0.0 0.00 0.00 0.00 87 1017.3
20260504031606 55 208 0.0 0.0 0.00 0.00 0.00 87 1017.5
20260504031102 55 208 0.0 0.0 0.00 0.00 0.00 87 1017.5
20260504030600 55 208 0.0 0.0 0.00 0.00 0.00 87 1017.4
20260504030056 55 208 0.0 0.0 0.00 0.00 0.00 86 1017.6
20260504025553 55 208 0.0 0.0 0.00 0.00 0.00 86 1017.5
20260504025050 55 208 0.0 0.0 0.00 0.00 0.00 86 1017.5
20260504024547 55 208 0.0 0.0 0.00 0.00 0.00 85 1017.5
20260504024044 55 207 0.0 0.0 0.00 0.00 0.00 85 1017.5
20260504023540 55 207 0.0 0.0 0.00 0.00 0.00 85 1017.4
20260504023036 56 207 0.0 0.0 0.00 0.00 0.00 85 1017.5
20260504022532 56 205 0.0 0.0 0.00 0.00 0.00 84 1017.4
20260504022029 56 205 0.0 0.0 0.00 0.00 0.00 84 1017.3
20260504021526 56 218 0.0 0.0 0.00 0.00 0.00 84 1017.4
20260504021023 56 218 0.0 0.0 0.00 0.00 0.00 83 1017.4
20260504020520 57 219 0.0 0.0 0.00 0.00 0.00 83 1017.2
20260504020016 57 218 0.0 0.0 0.00 0.00 0.00 83 1017.2
20260504015513 57 208 0.0 0.0 0.00 0.00 0.00 82 1017.1
20260504015009 57 207 0.0 0.0 0.00 0.00 0.00 82 1017.1
20260504014505 57 207 0.0 0.0 0.00 0.00 0.00 81 1017.2
20260504014003 57 208 0.0 0.0 0.00 0.00 0.00 81 1016.9
20260504013501 58 207 0.0 0.0 0.00 0.00 0.00 80 1016.8
20260504012956 58 207 0.0 0.0 0.00 0.00 0.00 80 1016.9
20260504012454 58 207 0.0 0.0 0.00 0.00 0.00 79 1017.0
20260504011952 58 208 0.0 0.0 0.00 0.00 0.00 79 1016.9
20260504011448 59 208 0.0 0.0 0.00 0.00 0.00 78 1016.7
20260504010944 59 212 0.0 0.0 0.00 0.00 0.00 78 1016.8
20260504010440 59 211 0.0 0.0 0.00 0.00 0.00 78 1016.7
20260504005936 60 211 0.0 0.0 0.00 0.00 0.00 77 1016.7
20260504005433 60 210 0.0 0.0 0.00 0.00 0.00 77 1016.5
20260504004931 60 207 0.0 0.0 0.00 0.00 0.00 77 1016.7
20260504004428 60 203 0.0 0.0 0.00 0.00 0.00 76 1016.6
20260504003925 61 203 0.0 0.0 0.00 0.00 0.00 75 1016.4
20260504003421 61 202 0.0 0.0 0.00 0.00 0.00 75 1016.5
20260504002918 61 201 0.0 0.0 0.00 0.00 0.00 74 1016.4
20260504002415 62 192 0.0 1.0 0.00 0.00 0.00 73 1016.4
20260504001913 62 190 0.0 0.0 0.00 0.00 0.00 72 1016.6
20260504001411 62 185 0.0 0.0 0.00 0.00 0.00 72 1016.2
20260504000906 63 183 0.0 0.0 0.00 0.00 0.00 71 1016.4
20260504000404 63 188 0.0 1.0 0.00 0.00 0.00 70 1016.2
20260503235901 63 191 0.0 2.0 0.00 0.00 0.00 68 1016.2
20260503235359 63 209 1.0 3.0 0.00 0.00 0.00 67 1016.2
20260503234856 63 188 3.0 6.0 0.00 0.00 0.00 67 1015.9
20260503234354 64 213 2.0 6.0 0.00 0.00 0.00 67 1016.0
20260503233851 64 189 4.0 6.0 0.00 0.00 0.00 66 1016.0
20260503233347 64 192 3.0 6.0 0.00 0.00 0.00 66 1016.0
20260503232844 64 185 3.0 5.0 0.00 0.00 0.00 66 1015.9
20260503232341 64 214 4.0 9.0 0.00 0.00 0.00 65 1016.2
20260503231839 64 202 2.0 5.0 0.00 0.00 0.00 65 1016.0
20260503231336 64 219 4.0 6.0 0.00 0.00 0.00 65 1015.8
20260503230832 64 197 4.0 7.0 0.00 0.00 0.00 65 1015.9
20260503230329 64 197 5.0 8.0 0.00 0.00 0.00 65 1015.8